Weather History for Fargo, ND

Change the Weather History Date:

Sunday, January 6, 2013

  Actual Average Record
Temperature  
Mean Temperature 9 °F 9 °F  
Max Temperature 17 °F 18 °F 44 °F (2012)
Min Temperature 1 °F 1 °F -43 °F (1887)
Degree Days  
Heating Degree Days 56 56  
Month to date heating degree days 325 332  
Since 1 July heating degree days 3785 3872  
Cooling Degree Days 0 0  
Month to date cooling degree days 0 0  
Year to date cooling degree days 0 0  
Moisture  
Dew Point 7 °F    
Average Humidity 81    
Maximum Humidity 88    
Minimum Humidity 73    
Precipitation  
Precipitation T in 0.02 in 0.78 in (1980)
Month to date precipitation 0.01 0.15  
Year to date precipitation 0.01 0.15  
Snow  
Snow T in 0.40 in 13.60 in (1989)
Month to date snowfall 0.1 2.4  
Since 1 July snowfall 13.6 22.2  
Snow Depth 3.00 in    
Sea Level Pressure  
Sea Level Pressure 30.10 in    
Wind  
Wind Speed 9 mph (South)    
Max Wind Speed 24 mph    
Max Gust Speed 31 mph    
Visibility 8 miles    
Events      
T = Trace of Precipitation, MM = Missing Value Source: NWS Daily Summary

Daily Weather History Graph

Daily Weather History Graph

Search for Another Location

Airport:

Trip Planner

Search our weather history database for the weather conditions in past years. The results will help you decide how hot, cold, wet, or windy it might be!

Date:

Astronomy

Jan. 06, 2013 Rise Set
Actual Time 8:12 AM CST 4:54 PM CST
Civil Twilight 7:37 AM CST 5:29 PM CST
Nautical Twilight 6:58 AM CST 6:07 PM CST
Astronomical Twilight 6:22 AM CST 6:44 PM CST
Moon 2:19 AM CST (1/6) 12:29 PM CST (1/6)
Length of Visible Light 9h 52m
Length of Day
8h 42m
Waning Crescent, 33% of the Moon is Illuminated
Jan 6
Waning Crescent
Jan 11
New
Jan 18
First Quarter
Jan 26
Full
Feb 3
Last Quarter

Hourly Weather History & Observations

Time (CST) Temp. Windchill Dew Point Humidity Pressure Visibility Wind Dir Wind Speed Gust Speed Precip Events Conditions
12:53 AM 15.1 °F 5.2 °F 10.0 °F 80% 30.15 in 10.0 mi South 6.9 mph - N/A   Overcast
1:03 AM 15.8 °F 5.1 °F 8.6 °F 73% 30.09 in 10.0 mi South 8.1 mph - N/A   Overcast
1:53 AM 16.0 °F 10.4 °F 10.9 °F 81% 30.17 in 10.0 mi SSW 3.5 mph - N/A   Overcast
2:53 AM 15.1 °F 6.4 °F 10.0 °F 80% 30.17 in 10.0 mi South 5.8 mph - N/A   Mostly Cloudy
3:53 AM 12.0 °F 5.9 °F 8.1 °F 84% 30.18 in 10.0 mi WSW 3.5 mph - N/A   Clear
4:53 AM 6.1 °F - 1.9 °F 83% 30.19 in 8.0 mi Calm Calm - N/A   Clear
5:53 AM 8.1 °F -2.0 °F 3.0 °F 80% 30.19 in 6.0 mi WSW 5.8 mph - N/A   Haze
6:53 AM 5.0 °F - 1.9 °F 87% 30.21 in 6.0 mi Calm Calm - N/A   Clear
7:53 AM 3.9 °F - -2.0 °F 76% 30.23 in 7.0 mi Calm Calm - N/A   Clear
8:53 AM 6.1 °F -0.9 °F 3.0 °F 87% 30.24 in 5.0 mi SSW 3.5 mph - N/A   Clear
9:53 AM 8.1 °F 1.4 °F 3.9 °F 83% 30.24 in 6.0 mi South 3.5 mph - N/A   Clear
10:17 AM 10.4 °F 2.2 °F 6.8 °F 85% 30.17 in 7.0 mi South 4.6 mph - N/A   Mostly Cloudy
10:53 AM 14.0 °F 6.5 °F 9.0 °F 80% 30.23 in 7.0 mi SSW 4.6 mph - N/A   Mostly Cloudy
11:53 AM 15.1 °F 3.3 °F 9.0 °F 77% 30.20 in 9.0 mi SSE 9.2 mph - N/A   Mostly Cloudy
12:08 PM 15.8 °F 4.2 °F 8.6 °F 73% 30.13 in 9.0 mi South 9.2 mph - N/A   Scattered Clouds
12:53 PM 15.1 °F 1.8 °F 8.1 °F 74% 30.17 in 10.0 mi South 11.5 mph - N/A   Clear
1:53 PM 16.0 °F 4.4 °F 9.0 °F 74% 30.15 in 9.0 mi South 9.2 mph - N/A   Clear
2:53 PM 15.1 °F 2.5 °F 8.1 °F 74% 30.12 in 7.0 mi South 10.4 mph - N/A   Clear
3:53 PM 14.0 °F -1.4 °F 8.1 °F 77% 30.11 in 8.0 mi South 15.0 mph - N/A   Clear
4:53 PM 14.0 °F -0.2 °F 8.1 °F 77% 30.10 in 7.0 mi SSE 12.7 mph - N/A   Clear
5:53 PM 14.0 °F -2.5 °F 8.1 °F 77% 30.04 in 9.0 mi SSE 17.3 mph 24.2 mph N/A   Clear
6:53 PM 12.9 °F -6.1 °F 7.0 °F 77% 29.97 in 8.0 mi SE 23.0 mph 28.8 mph N/A   Clear
7:53 PM 14.0 °F -3.4 °F 8.1 °F 77% 29.93 in 8.0 mi SSE 19.6 mph 26.5 mph N/A   Clear
8:53 PM 15.1 °F -1.6 °F 9.0 °F 77% 29.88 in 9.0 mi South 18.4 mph 28.8 mph N/A   Clear
9:53 PM 16.0 °F 0.6 °F 10.0 °F 77% 29.86 in 9.0 mi South 16.1 mph 25.3 mph N/A   Clear
10:53 PM 16.0 °F 2.9 °F 10.0 °F 77% 29.85 in 9.0 mi South 11.5 mph - N/A   Clear
11:53 PM 17.1 °F 2.5 °F 10.9 °F 77% 29.81 in 9.0 mi South 15.0 mph - N/A   Clear